Regional Weather Roundup
Issued by NWS

Home | Current Version | Previous Version | Text Only | Print | Product List | Glossary Off
Versions: 1 2 3 4 5 6 7 8 9 10 11 12 13 14 15 16 17 18 19 20 21 22 23 24 25 26 27 28 29 30 31 32 33 34 35 36 37 38 39 40 41 42 43 44 45 46 47 48 49 50

841
ASUS45 KTFX 271510
RWRMT
MONTANA REGIONAL WEATHER ROUNDUP
NATIONAL WEATHER SERVICE GREAT FALLS MT
900 AM MDT SAT AUG 27 2016

NOTE: "FAIR" INDICATES FEW OR NO CLOUDS BELOW 12000 FEET WITH NO
SIGNIFICANT WEATHER AND/OR OBSTRUCTIONS TO VISIBILITY.

MTZ001>007-043-271600-
WEST OF THE DIVIDE

CITY           SKY/WX    TMP DP  RH WIND       PRES   REMARKS
KALISPELL      MOSUNNY   63  46  54 VRB7      29.82S
MISSOULA       MOSUNNY   57  41  55 CALM      29.93S
BUTTE          MOSUNNY   49  32  52 CALM      30.03S
MULLAN PASS    PTSUNNY   56  34  43 CALM      29.97S
DEER LODGE       N/A     63  34  34 S5        29.99F
EUREKA           N/A     70  41  35 SE17      29.75F
HAMILTON         N/A     59  34  38 S17       29.93S
LIBBY            N/A     61  43  51 CALM      29.77F
PLAINS           N/A     58  42  55 CALM      29.85
RONAN            N/A     66  45  46 SE6       29.91S
$$

MTZ008-052>055-271600-
SOUTHWEST MONTANA

CITY           SKY/WX    TMP DP  RH WIND       PRES   REMARKS
BOZEMAN        MOSUNNY   56  40  55 E3        30.00S
DILLON         CLOUDY    56  30  37 S12       30.02S
W YELLOWSTONE  CLOUDY    45  28  53 NE3       30.16R HAZE
ENNIS          SUNNY     57  30  35 S10       30.08S
THREE FORKS      N/A     49  49 100 CALM      29.98S
$$

MTZ009-010-012-014-046-048-049-054-271600-
EAST SLOPES AND CENTRAL MONTANA

CITY           SKY/WX    TMP DP  RH WIND       PRES   REMARKS
CUT BANK       PTSUNNY   68  39  34 SW14      29.78S
GREAT FALLS    CLOUDY    67  36  31 SW16      29.83F
MALMSTROM AFB  CLOUDY    66  39  37 MISG      29.83S
HELENA         CLOUDY    59  38  45 CALM      29.95R
CHOTEAU          N/A     68  37  32 SW9G16    29.84S
CONRAD           N/A     66  47  50 S3        29.84S
$$

MTZ011-013-016-021-045-047-050-051-271600-
NORTH CENTRAL MONTANA

CITY           SKY/WX    TMP DP  RH WIND       PRES   REMARKS
HAVRE          CLOUDY    57  47  69 CALM      29.78S
LEWISTOWN      CLOUDY    62  42  47 CALM      29.89S
N BAR RANCH      N/A     59  41  51 CALM      29.92F
CHINOOK          N/A     55  48  76 E8        29.78F
$$

MTZ017>020-022>027-061-062-271600-
NORTHEAST MONTANA

CITY           SKY/WX    TMP DP  RH WIND       PRES   REMARKS
GLASGOW        MOSUNNY   57  47  69 SE12G20   29.85F
JORDAN           N/A     57  50  77 CALM      29.86F
SIDNEY         SUNNY     57  48  72 S5        29.92F
WOLF POINT     SUNNY     57  45  64 E6        29.89F
POPLAR           N/A     59  46  63 SE3       29.90S
SCOBEY           N/A     57  47  69 CALM      29.88F
$$

MTZ028>42-056>058-271600-
SOUTHCENTRAL AND SOUTHEAST MONTANA

CITY           SKY/WX    TMP DP  RH WIND       PRES   REMARKS
BAKER          SUNNY     61  49  64 CALM      29.95F
BILLINGS       PTSUNNY   55  43  63 SW10      29.92F
LIVINGSTON     CLOUDY    51  37  58 NW10      29.97F
MILES CITY     CLOUDY    59  45  59 SE7       29.91F
EKALAKA          N/A     64  46  52 S2        29.95
FORSYTH          N/A     63  50  63 CALM      29.89F
LAUREL           N/A     56  42  59 S2        29.92F
ROUNDUP          N/A     55  42  61 S9        29.83F
$$

REGIONAL REPORTS...DAKOTAS

CITY           SKY/WX    TMP DP  RH WIND       PRES   REMARKS
WILLISTON      SUNNY     58  46  64 S6        29.92F
MINOT          SUNNY     64  52  64 NW3       29.91F
DICKINSON      SUNNY     61  50  67 S7        29.93F
CROSBY           N/A     59  50  72 S10       29.93S
WATFORD CITY     N/A     57  54  88 SW5       29.94S
BISMARCK       MOSUNNY   62  54  74 VRB3      29.94S
GRAND FORKS    LGT RAIN  60  57  89 SE13      29.95S
FARGO          CLOUDY    65  60  84 S13G20    29.96F
BUFFALO SD       N/A     58  55  90 S7        29.91S
RAPID CITY     SUNNY     65  53  65 S13       29.99F
$$

REGIONAL REPORTS...WYOMING/IDAHO/WASHINGTON

CITY           SKY/WX    TMP DP  RH WIND       PRES   REMARKS
GILLETTE       SUNNY     62  50  64 S18       29.99F
SHERIDAN       CLOUDY    59  47  64 CALM      29.96F
BUFFALO WY     SUNNY     62  41  46 S5        30.01S
CODY           CLOUDY    54  46  76 CALM      30.01F
YELLOWSTONE LA   N/A     50  34  54 CALM      30.22S
IDAHO FALLS    SUNNY     57  34  41 S6        30.08R
SALMON         MOSUNNY   46  37  71 CALM      30.05S
BOISE          SUNNY     66  33  29 SE7       29.95S
SPOKANE        PTSUNNY   65  37  35 S10       29.78R
$$

REGIONAL REPORTS...ALBERTA

CITY           SKY/WX    TMP DP  RH WIND       PRES   REMARKS
EDMONTON       CLOUDY    59  50  72 S6        29.56S
CALGARY        CLOUDY    61  46  59 SW7       29.64S
LETHBRIDGE     PTSUNNY   70  43  37 SW15      29.68F
MEDICINE HAT   PTSUNNY   66  48  52 S13       29.66F
WATERTON GATE    N/A     64  41  42 SW13G21     N/A
MILK RIVER       N/A     64  45  48 S6          N/A
ONEFOUR          N/A     57  45  62 SE10        N/A
$$

REGIONAL REPORTS...SASKATCHEWAN

CITY           SKY/WX    TMP DP  RH WIND       PRES   REMARKS
SWIFT CURRENT  SUNNY     59  48  67 S17G25    29.76F
REGINA         MOSUNNY   55  50  82 SE6       29.86F
SASKATOON      PTSUNNY   59  50  72 SE10      29.80F
VAL MARIE        N/A     61  46  59 S10G17      N/A
ROCKGLEN         N/A     57  46  67 S10         N/A
ASSINIBOIA       N/A     59  50  72 SE10        N/A
$$




USA.gov is the U.S. government's official web portal to all federal, state and local government web resources and services.